sat.trackr.live / text

‹ back to catalog

GLOBAL-9

NORAD 47971 · 2021-023G

PAYLOAD ACTIVE UNKNOWN

§ Identity

Operator
Country
US
Launch date
2021-03-22
Launch site
RLLB
Launch vehicle
Mass (kg)
RCS (m²)

External: N2YO · Heavens-Above · Gunter

§ Orbital elements

Epoch: 2026-09-19T21:32:57.151680Z

Period
92.89 min
Inclination
44.9802°
Eccentricity
0.0004883
Mean motion
15.50143682 rev/d
Perigee alt
413.0 km
Apogee alt
419.6 km
Semi-major
6,794.4 km
B*
3.3448e-4
RAAN
76.7730°
Arg perigee
238.6794°
Mean anomaly
121.3620°
Rev number
30,962

§ Raw data

GLOBAL-91 47971U 21023G   26262.89788370  .00018958  00000+0  33448-3 0  99992 47971  44.9802  76.7730 0004883 238.6794 121.3620 15.50143682309629

JSON: /api/v1/satellites/47971 · /tle

For live sub-satellite position, see the globe view (requires WebGL).

§ Visibility from observer

Set your observer location to see the next 7 days of passes ≥ 10°. The values pass through the URL so the page stays shareable.

No JS? Fill the form by hand. The geolocation button needs JavaScript.

§ Radio — SatNOGS DB

ModeDescriptionDownlinkUplink
FM Telemetry 400.876 MHz
BPSK UHF Unknown 401.500 MHz

2 transmitters · refreshed weekly from db.satnogs.org